[[{"header":{"parameterUnit":"m.s-1","parameterCategory":1,"la1":30.2991,"la2":30.254,"lo1":-89.0895,"lo2":-89.0444,"dy":0.0017,"dx":0.0017,"nx":28,"ny":28,"refTime":"2023-08-18T21:00:00:Z","depth":0,"parameterNumber":2,"parameterNumberName":"U-component_of_WINDS"},"data":[0,0,0,0,0,0,0,0,0,0,0,0,0,0,0,0,0,0,0,0,0,0,0,0,0,0,0,0,0,0,0,0,0,0,0,0,0,0,0,0,0,0,0,0,0,0,0,0,0,0,0,0,0,0,0,0,0,0,0.8542,0.8542,0,0.8548,0.8548,0.8548,0.85,0.8499,0.8497,0.8496,0.8505,0.8506,0.8508,0,0,0,0,0,0,0,0,0,0,0,0,0,0.8489,0.849,0.8542,0.8542,0.8542,0.8548,0.8548,0.8548,0.85,0.8499,0.8497,0.8496,0.8504,0.8506,0.8508,0,0,0,0,0,0,0,0,0,0,0,0,0,0.8506,0.8491,0.8542,0.8519,0.8517,0.8548,0.8548,0.8548,0.8501,0.8499,0.8497,0.8495,0.8504,0.8506,0.8508,0.8562,0,0,0.8515,0.8516,0,0,0,0,0,0,0,0,0.8505,0.8508,0.8522,0.8521,0.8518,0.8521,0.8533,0.8553,0.8501,0.8507,0.8496,0.8494,0.8512,0.8513,0.8519,0.8563,0.8563,0.8515,0.8516,0.8517,0.8518,0,0,0,0,0,0,0,0.8504,0.8507,0.8545,0.8523,0.852,0.8508,0.8508,0.8536,0.8521,0.8506,0.8503,0.8504,0.8511,0.8517,0.8519,0.8563,0.8515,0.8517,0.8518,0.8519,0.8648,0.865,0,0,0,0,0,0,0.8505,0.8506,0.8544,0.8545,0.8506,0.8511,0.8511,0.8522,0.852,0.8518,0.8506,0.8502,0.8514,0.8516,0.8519,0.858,0.8517,0.8519,0.8521,0.8646,0.8648,0.865,0,0,0,0,0,0,0.8504,0.8509,0.8544,0.8525,0.8528,0.8514,0.8527,0.8524,0.853,0.852,0.8517,0.8515,0.8513,0.8516,0.8551,0.8579,0.852,0.8522,0.8643,0.8646,0.8649,0.8703,0,0,0,0,0,0,0.8503,0.8509,0.853,0.8525,0.8529,0.8576,0.8529,0.8525,0.8534,0.8529,0.8528,0.8526,0.8511,0.8548,0.8553,0.8581,0.8524,0.8641,0.8645,0.8648,0.8699,0.8708,0.8716,0,0,0,0,0,0.8501,0.8546,0.8531,0.8536,0.8555,0.8578,0.858,0.8562,0.8536,0.8556,0.8549,0.8526,0.8576,0.8552,0.8557,0.8587,0.8639,0.8644,0.8648,0.8695,0.8706,0.8716,0,0,0,0,0,0,0.8556,0.8545,0.8529,0.8573,0.8577,0.857,0.8595,0.8574,0.8586,0.8581,0.8558,0.8558,0.8596,0.8595,0.8569,0.8637,0.8603,0.8609,0.8637,0.8647,0.8655,0.8654,0.8526,0,0,0,0,0,0.8573,0.8593,0.8582,0.8623,0.8625,0.861,0.8619,0.8604,0.8607,0.8609,0.8604,0.8609,0.8625,0.8636,0.8651,0.8699,0.8697,0.8722,0.873,0.8737,0.8742,0.8764,0.8775,0.8666,0.8666,0.8666,0,0,0.861,0.8606,0.862,0.8633,0.8634,0.8654,0.8611,0.8635,0.8649,0.8613,0.8644,0.8641,0.8644,0.8685,0.8703,0.8685,0.8772,0.8743,0.8748,0.875,0.877,0.8781,0.879,0.8669,0.8668,0.8668,0,0,0.8685,0.8685,0.8717,0.8717,0.8718,0.8707,0.8715,0.8711,0.8707,0.8738,0.871,0.8726,0.8756,0.8758,0.8763,0.8835,0.8813,0.8841,0.8884,0.8907,0.8915,0.8922,0.8946,0.8955,0.8846,0.8846,0.8847,0,0.8729,0.8758,0.8736,0.876,0.8766,0.8732,0.8763,0.8766,0.8772,0.8777,0.8757,0.879,0.879,0.883,0.8847,0.8853,0.886,0.8841,0.8915,0.8923,0.8929,0.8952,0.8961,0.885,0.8849,0.8849,0.8849,0,0.8811,0.8832,0.8857,0.8862,0.8871,0.8899,0.8881,0.8892,0.8876,0.8867,0.8898,0.8896,0.8908,0.8917,0.8902,0.8954,0.8942,0.8919,0.8884,0.8943,0.8964,0.8972,0.8854,0.8853,0.8852,0.8851,0,0,0.8923,0.8912,0.8922,0.8922,0.892,0.8935,0.896,0.8971,0.898,0.8985,0.9005,0.9029,0.9006,0.9012,0.8997,0.9017,0.9071,0.8991,0.8991,0.9004,0.9125,0.9141,0.9151,0.9057,0.9058,0.906,0.9124,0,0.8994,0.9036,0.9016,0.9061,0.9077,0.9044,0.9066,0.9066,0.9058,0.9071,0.9062,0.9078,0.9049,0.9051,0.9069,0.9061,0.9095,0.9056,0.9074,0.9075,0.9073,0.9162,0.918,0.9241,0.9132,0.9133,0.9134,0,0.9084,0.9089,0.9135,0.9126,0.9132,0.9153,0.9158,0.9172,0.9171,0.9163,0.9168,0.9148,0.9171,0.9136,0.9168,0.9142,0.9148,0.9145,0.9146,0.9147,0.9108,0.9163,0.926,0.9269,0.9147,0.9146,0.9145,0,0.9157,0.9177,0.9206,0.9207,0.9198,0.9213,0.921,0.9207,0.9213,0.9219,0.9222,0.9232,0.9236,0.9243,0.9226,0.9202,0.9259,0.9223,0.9252,0.9252,0.9265,0.9264,0.9363,0.9272,0.9272,0.9271,0.9271,0,0.9238,0.9267,0.9238,0.9256,0.9287,0.9262,0.9293,0.9287,0.9284,0.9299,0.9272,0.9287,0.9263,0.9276,0.9262,0.9289,0.9292,0.9285,0.9281,0.9287,0.9288,0.929,0.9285,0.9274,0.9273,0.9273,0.9272,0,0.9326,0.9308,0.9337,0.9324,0.9322,0.9345,0.9334,0.935,0.9339,0.9358,0.9362,0.9344,0.9357,0.934,0.9353,0.9343,0.9379,0.9369,0.9379,0.9375,0.9405,0.9402,0.9507,0.9519,0.9422,0.9423,0.9424,0,0.9378,0.9399,0.9388,0.9395,0.9393,0.9406,0.9411,0.9388,0.9395,0.9394,0.9409,0.9419,0.9426,0.9449,0.9437,0.9446,0.9435,0.9471,0.9436,0.9441,0.9433,0.9432,0.9433,0.9478,0.948,0.9481,0.9481,0,0.9471,0.9461,0.9469,0.9474,0.9481,0.9484,0.9485,0.9493,0.9468,0.9477,0.9489,0.9494,0.9505,0.9515,0.952,0.9517,0.9495,0.9492,0.9499,0.9505,0.9509,0.9505,0.9397,0.949,0.9489,0.9488,0.9488,0.9488,0.9541,0.9557,0.9551,0.956,0.9558,0.9559,0.9572,0.9561,0.957,0.9576,0.9562,0.9577,0.9573,0.9577,0.9576,0.9587,0.9571,0.9582,0.9584,0.9587,0.959,0.9508,0.9588,0.9588,0.9587,0.9587,0.9587,0,0.9632,0.9625,0.9634,0.9635,0.9642,0.9619,0.9619,0.9626,0.9639,0.9637,0.9643,0.9656,0.9665,0.9653,0.966,0.9671,0.966,0.9673,0.9671,0.967,0.9605,0.9597,0.9681,0.9681,0.9681,0.9681,0.9681,0.9681,0.968,0.9704,0.9692,0.9714,0.9708,0.9721,0.9722,0.9722,0.9719,0.9734,0.9741,0.9732,0.9726,0.9731,0.9738,0.9734,0.9737,0.9753,0.9746,0.9685,0.9675,0.9667,0.9659,0.9754,0.9755,0.981,0.9811,0.9811]},{"header":{"parameterUnit":"m.s-1","parameterCategory":1,"la1":30.2991,"la2":30.254,"lo1":-89.0895,"lo2":-89.0444,"dy":0.0017,"dx":0.0017,"nx":28,"ny":28,"refTime":"2023-08-18T21:00:00:Z","depth":0,"parameterNumber":3,"parameterNumberName":"V-component_of_WINDS"},"data":[0,0,0,0,0,0,0,0,0,0,0,0,0,0,0,0,0,0,0,0,0,0,0,0,0,0,0,0,0,0,0,0,0,0,0,0,0,0,0,0,0,0,0,0,0,0,0,0,0,0,0,0,0,0,0,0,0,0,0.984,0.984,0,0.9907,0.9908,0.9908,0.9927,0.9926,0.9926,0.9926,0.9991,0.9993,0.9995,0,0,0,0,0,0,0,0,0,0,0,0,0,0.9722,0.9724,0.984,0.984,0.9841,0.9907,0.9908,0.9909,0.9927,0.9926,0.9926,0.9925,0.999,0.9992,0.9995,0,0,0,0,0,0,0,0,0,0,0,0,0,0.978,0.9725,0.9839,0.9858,0.9861,0.9907,0.9908,0.9909,0.9927,0.9926,0.9926,0.9925,0.9989,0.9992,0.9995,1.0026,0,0,1.0005,1.0006,0,0,0,0,0,0,0,0,0.9776,0.9784,0.9855,0.9857,0.986,0.9908,0.989,0.9948,0.9927,0.9902,0.9926,0.9925,0.9963,0.9969,0.9982,1.0029,1.0032,1.0005,1.0007,1.0008,1.0009,0,0,0,0,0,0,0,0.9772,0.9781,0.9866,0.9856,0.9859,0.9862,0.9869,0.9901,0.9935,0.9904,0.9905,0.9913,0.9965,0.9979,0.9984,1.0033,1.0005,1.0008,1.001,1.0011,1.0106,1.0107,0,0,0,0,0,0,0.9766,0.9778,0.9864,0.9868,0.9816,0.9865,0.9873,0.9893,0.9935,0.994,0.9914,0.9914,0.9974,0.998,0.9986,1.0024,1.0008,1.0011,1.0013,1.0106,1.0107,1.0107,0,0,0,0,0,0,0.9763,0.9773,0.9861,0.9823,0.9835,0.9867,0.989,0.9895,0.9909,0.9942,0.9948,0.9923,0.9974,0.9982,1.0016,1.0027,1.0013,1.0016,1.0105,1.0106,1.0107,1.01,0,0,0,0,0,0,0.976,0.9772,0.9785,0.9824,0.9837,0.9891,0.989,0.9896,0.9915,0.9916,0.9952,0.9957,0.9974,1.0011,1.0019,1.0031,1.0018,1.0104,1.0105,1.0107,1.01,1.0101,1.0102,0,0,0,0,0,0.9755,0.978,0.9786,0.9796,0.9854,0.9892,0.9899,0.9919,0.9916,0.9929,0.9949,0.9956,1.0024,1.0015,1.0024,1.0036,1.0104,1.0105,1.0106,1.0099,1.0101,1.0102,0,0,0,0,0,0,0.9742,0.9786,0.9792,0.9831,0.9858,0.9895,0.9912,0.992,0.9947,0.9947,0.9969,0.9977,1.0009,1.0026,1.0015,1.0067,1.0064,1.0067,1.0055,1.0057,1.0058,1.0053,1.0021,0,0,0,0,0,0.9743,0.9771,0.9808,0.9838,0.9851,0.9879,0.9896,0.9909,0.9937,0.9948,0.9972,0.9997,1.0024,1.0042,1.0068,1.0102,1.011,1.0115,1.0116,1.0117,1.012,1.0138,1.014,1.0112,1.0112,1.0112,0,0,0.9746,0.9774,0.979,0.9836,0.9858,0.9885,0.9888,0.9917,0.9937,0.9952,0.9986,1.0004,1.0034,1.0068,1.0084,1.0083,1.0129,1.0119,1.012,1.0122,1.0139,1.0142,1.0144,1.0113,1.0113,1.0113,0,0,0.9766,0.979,0.9818,0.984,0.9874,0.9892,0.9899,0.9935,0.9947,0.9982,0.9993,1.0016,1.0063,1.0083,1.01,1.0126,1.0133,1.0134,1.014,1.0157,1.0159,1.0161,1.017,1.0172,1.0136,1.0136,1.0136,0,0.9765,0.9809,0.983,0.9859,0.9878,0.9894,0.992,0.994,0.9981,0.9993,0.9991,1.0049,1.0071,1.0109,1.0115,1.0129,1.0135,1.013,1.0157,1.016,1.0162,1.017,1.0173,1.0136,1.0136,1.0136,1.0136,0,0.9805,0.9835,0.9852,0.9892,0.9913,0.994,0.9965,0.9983,0.9994,1.0012,1.0045,1.0072,1.0104,1.0114,1.0124,1.0153,1.0151,1.0153,1.015,1.0164,1.0172,1.0175,1.0136,1.0136,1.0136,1.0136,0,0,0.9819,0.987,0.9876,0.9893,0.9931,0.9954,0.9981,1.0013,1.0028,1.0055,1.0077,1.0116,1.0118,1.0136,1.0149,1.0164,1.0182,1.0164,1.0165,1.0166,1.0214,1.0211,1.0215,1.0187,1.0187,1.0188,1.0211,0,0.9842,0.9893,0.9913,0.9954,0.998,0.9995,1.0019,1.0043,1.006,1.0084,1.0102,1.0129,1.013,1.0141,1.0157,1.0176,1.0192,1.0175,1.0206,1.0207,1.0198,1.0219,1.0217,1.0237,1.0214,1.0215,1.0215,0,0.9877,0.9905,0.9949,0.9983,0.9995,1.0016,1.0046,1.0069,1.0097,1.0108,1.0128,1.014,1.0168,1.0163,1.02,1.0188,1.0202,1.0213,1.0214,1.0217,1.0212,1.0222,1.0244,1.0247,1.022,1.022,1.0219,0,0.9881,0.993,0.9962,0.9977,1.0017,1.0031,1.0049,1.0076,1.0094,1.012,1.0131,1.016,1.0175,1.0196,1.0214,1.0209,1.0249,1.0246,1.0258,1.0257,1.0265,1.0264,1.0289,1.0275,1.0275,1.0275,1.0275,0,0.9905,0.9931,0.9964,0.9984,1.0013,1.0035,1.0062,1.008,1.0104,1.0126,1.014,1.016,1.0184,1.0207,1.0221,1.0249,1.0255,1.0264,1.0267,1.0263,1.0261,1.0272,1.027,1.0276,1.0276,1.0275,1.0275,0,0.9915,0.9938,0.9974,1.001,1.0019,1.0038,1.0068,1.0087,1.0104,1.0132,1.014,1.0166,1.0194,1.0214,1.0249,1.0259,1.0288,1.0292,1.0279,1.0281,1.0291,1.0289,1.0323,1.0328,1.0311,1.0311,1.0311,0,0.9929,0.9949,0.9987,1.0003,1.002,1.0047,1.0065,1.0087,1.0105,1.0137,1.0152,1.018,1.0204,1.0247,1.0268,1.0295,1.0299,1.0309,1.0303,1.0297,1.0298,1.0297,1.0298,1.031,1.031,1.031,1.031,0,0.995,0.996,0.9987,1.0017,1.0039,1.0063,1.0088,1.01,1.0126,1.0145,1.0174,1.0192,1.0229,1.0256,1.0285,1.0301,1.0309,1.0312,1.0315,1.031,1.0302,1.0306,1.028,1.0311,1.0311,1.031,1.031,1.031,0.9961,0.998,1.0009,1.0038,1.0059,1.0081,1.01,1.012,1.0145,1.0177,1.0188,1.0217,1.0242,1.0282,1.0298,1.032,1.032,1.0326,1.0328,1.0328,1.0328,1.0299,1.0325,1.0326,1.0326,1.0326,1.0326,0,0.9983,1.0002,1.0028,1.0063,1.0085,1.0092,1.0119,1.0137,1.0163,1.0187,1.021,1.0242,1.0269,1.0292,1.032,1.0333,1.0337,1.0339,1.0338,1.0341,1.0327,1.032,1.0335,1.0335,1.0335,1.0335,1.0335,1.0335,0.9997,1.0028,1.0041,1.0082,1.0101,1.0131,1.0145,1.0166,1.0185,1.0221,1.0243,1.0259,1.0282,1.0311,1.0335,1.0341,1.035,1.0351,1.0358,1.0344,1.0342,1.0341,1.0335,1.0353,1.0353,1.037,1.0371,1.0371]}]]